AAY1714 KPDX-KIDA

Flight info

Callsign AAY1714
Flight time N/A
Altitude 37000
Route WHAMY5 IMB
Aircraft A319/M-SDE3FGHIRWY/LB1

Departure

Time 2026-05-05 05:04
Airport Portland International Airport (KPDX)

Arrival

Time N/A
Airport Idaho Falls Regional Airport (KIDA)
Time Latitude Longitude Altitude Speed Heading
2026-05-05 04:35 45.58942 -122.59641 32 ft 0 kts 208°
2026-05-05 04:50 45.58946 -122.59638 32 ft 2 kts 208°
2026-05-05 04:50 45.58962 -122.59624 32 ft 3 kts 209°
2026-05-05 04:50 45.58978 -122.59612 30 ft 3 kts 216°
2026-05-05 04:51 45.58992 -122.59594 31 ft 3 kts 246°
2026-05-05 04:51 45.58995 -122.59569 31 ft 3 kts 288°
2026-05-05 04:51 45.58991 -122.59554 31 ft 1 kts 299°
2026-05-05 04:51 45.58990 -122.59551 31 ft 1 kts 299°
2026-05-05 04:53 45.58990 -122.59553 31 ft 1 kts 299°
2026-05-05 04:53 45.59004 -122.59588 30 ft 7 kts 299°
2026-05-05 04:54 45.59031 -122.59657 30 ft 9 kts 299°
2026-05-05 04:54 45.59062 -122.59735 30 ft 9 kts 300°
2026-05-05 04:54 45.59093 -122.59814 30 ft 9 kts 299°
2026-05-05 04:54 45.59104 -122.59842 30 ft 0 kts 299°
2026-05-05 04:56 45.59108 -122.59851 30 ft 2 kts 298°
2026-05-05 04:56 45.59119 -122.59881 29 ft 7 kts 298°
2026-05-05 04:56 45.59140 -122.59980 29 ft 11 kts 272°
2026-05-05 04:57 45.59116 -122.60074 30 ft 10 kts 233°
2026-05-05 04:57 45.59058 -122.60125 30 ft 10 kts 206°
2026-05-05 04:57 45.58997 -122.60168 31 ft 9 kts 206°
2026-05-05 04:57 45.58947 -122.60193 31 ft 7 kts 213°
2026-05-05 04:58 45.58910 -122.60213 33 ft 5 kts 182°
2026-05-05 04:58 45.58878 -122.60181 33 ft 11 kts 134°
2026-05-05 04:58 45.58834 -122.60077 34 ft 12 kts 118°
2026-05-05 04:58 45.58793 -122.59968 33 ft 12 kts 118°
2026-05-05 04:59 45.58754 -122.59868 37 ft 11 kts 119°
2026-05-05 04:59 45.58718 -122.59774 37 ft 11 kts 119°
2026-05-05 04:59 45.58677 -122.59673 34 ft 13 kts 120°
2026-05-05 04:59 45.58633 -122.59562 35 ft 13 kts 120°
2026-05-05 05:00 45.58588 -122.59449 33 ft 14 kts 118°
2026-05-05 05:00 45.58539 -122.59316 31 ft 16 kts 118°
2026-05-05 05:00 45.58485 -122.59179 32 ft 16 kts 121°
2026-05-05 05:00 45.58431 -122.59040 30 ft 16 kts 119°
2026-05-05 05:01 45.58377 -122.58901 32 ft 15 kts 119°
2026-05-05 05:01 45.58326 -122.58773 33 ft 15 kts 119°
2026-05-05 05:01 45.58275 -122.58643 33 ft 15 kts 119°
2026-05-05 05:01 45.58225 -122.58517 33 ft 15 kts 119°
2026-05-05 05:02 45.58169 -122.58384 30 ft 16 kts 133°
2026-05-05 05:02 45.58078 -122.58392 31 ft 13 kts 210°
2026-05-05 05:02 45.58075 -122.58455 33 ft 0 kts 300°
2026-05-05 05:03 45.58075 -122.58456 33 ft 1 kts 300°
2026-05-05 05:03 45.58160 -122.58665 37 ft 59 kts 300°
2026-05-05 05:03 45.58475 -122.59477 34 ft 122 kts 299°
2026-05-05 05:04 45.58972 -122.60741 73 ft 165 kts 300°
2026-05-05 05:04 45.59534 -122.62144 709 ft 163 kts 300°
2026-05-05 05:04 45.60129 -122.63542 1252 ft 171 kts 302°
2026-05-05 05:04 45.60794 -122.65085 1522 ft 193 kts 303°
2026-05-05 05:05 45.61542 -122.66826 1773 ft 218 kts 304°
2026-05-05 05:05 45.62372 -122.68785 2139 ft 242 kts 302°
2026-05-05 05:05 45.63269 -122.70955 2595 ft 263 kts 301°
2026-05-05 05:05 45.64203 -122.73251 3327 ft 270 kts 301°
2026-05-05 05:06 45.65153 -122.75595 4156 ft 275 kts 301°
2026-05-05 05:06 45.66108 -122.77974 5024 ft 278 kts 300°
2026-05-05 05:06 45.66770 -122.80590 5861 ft 282 kts 282°
2026-05-05 05:06 45.66864 -122.83372 6680 ft 287 kts 264°
2026-05-05 05:07 45.66389 -122.86194 7539 ft 290 kts 252°
2026-05-05 05:07 45.65700 -122.88883 8388 ft 293 kts 240°
2026-05-05 05:07 45.64361 -122.91063 9188 ft 295 kts 213°
2026-05-05 05:07 45.62478 -122.92168 10014 ft 294 kts 187°
2026-05-05 05:08 45.60417 -122.92020 10492 ft 307 kts 164°
2026-05-05 05:08 45.58287 -122.91142 10727 ft 330 kts 161°
2026-05-05 05:08 45.56166 -122.89777 11228 ft 339 kts 146°
2026-05-05 05:08 45.54324 -122.87661 11883 ft 343 kts 132°
2026-05-05 05:09 45.52876 -122.84938 12554 ft 347 kts 118°
2026-05-05 05:09 45.51836 -122.81820 13242 ft 350 kts 112°
2026-05-05 05:09 45.50843 -122.78622 13907 ft 355 kts 112°
2026-05-05 05:09 45.49841 -122.75381 14525 ft 359 kts 112°
2026-05-05 05:10 45.48830 -122.72118 15204 ft 361 kts 112°
2026-05-05 05:10 45.47809 -122.68836 15827 ft 364 kts 113°
2026-05-05 05:10 45.46777 -122.65521 16451 ft 368 kts 112°
2026-05-05 05:10 45.45737 -122.62178 17066 ft 371 kts 112°
2026-05-05 05:11 45.44684 -122.58803 17674 ft 375 kts 112°
2026-05-05 05:11 45.43618 -122.55398 18262 ft 379 kts 112°
2026-05-05 05:11 45.42542 -122.51955 18792 ft 381 kts 112°
2026-05-05 05:11 45.41461 -122.48499 19379 ft 383 kts 112°
2026-05-05 05:12 45.40372 -122.45026 19963 ft 384 kts 112°
2026-05-05 05:12 45.39279 -122.41551 20547 ft 386 kts 112°
2026-05-05 05:12 45.38180 -122.38060 21139 ft 387 kts 112°
2026-05-05 05:12 45.37077 -122.34554 21694 ft 389 kts 112°
2026-05-05 05:13 45.35967 -122.31034 22236 ft 391 kts 112°
2026-05-05 05:13 45.34848 -122.27494 22784 ft 393 kts 112°
2026-05-05 05:13 45.33724 -122.23943 23308 ft 395 kts 112°
2026-05-05 05:13 45.32591 -122.20374 23761 ft 397 kts 112°
2026-05-05 05:14 45.31449 -122.16782 24186 ft 399 kts 111°
2026-05-05 05:14 45.30302 -122.13175 24585 ft 402 kts 111°
2026-05-05 05:14 45.29150 -122.09552 25004 ft 404 kts 111°
2026-05-05 05:14 45.27992 -122.05908 25409 ft 406 kts 111°
2026-05-05 05:15 45.26830 -122.02256 25775 ft 407 kts 111°
2026-05-05 05:15 45.25652 -121.98577 26123 ft 410 kts 111°
2026-05-05 05:15 45.24526 -121.94849 26497 ft 412 kts 109°
2026-05-05 05:15 45.23505 -121.91040 26886 ft 413 kts 107°
2026-05-05 05:16 45.22553 -121.87183 27282 ft 415 kts 106°
2026-05-05 05:16 45.21622 -121.83301 27664 ft 417 kts 106°
2026-05-05 05:16 45.20679 -121.79400 28044 ft 419 kts 106°
2026-05-05 05:16 45.19714 -121.75490 28426 ft 421 kts 107°
2026-05-05 05:17 45.18724 -121.71578 28773 ft 423 kts 107°
2026-05-05 05:17 45.17711 -121.67650 29112 ft 425 kts 107°
2026-05-05 05:17 45.16685 -121.63713 29450 ft 427 kts 107°
2026-05-05 05:17 45.15650 -121.59755 29788 ft 430 kts 107°
2026-05-05 05:18 45.14608 -121.55772 30075 ft 432 kts 107°
2026-05-05 05:18 45.13564 -121.51777 30333 ft 434 kts 107°
2026-05-05 05:18 45.12516 -121.47756 30588 ft 436 kts 107°
2026-05-05 05:18 45.11465 -121.43719 30847 ft 438 kts 107°
2026-05-05 05:19 45.10423 -121.39717 31104 ft 440 kts 107°
2026-05-05 05:19 45.09363 -121.35653 31409 ft 440 kts 107°
2026-05-05 05:19 45.08305 -121.31596 31771 ft 439 kts 107°
2026-05-05 05:19 45.07247 -121.27547 32156 ft 438 kts 107°
2026-05-05 05:20 45.06189 -121.23506 32527 ft 437 kts 107°
2026-05-05 05:20 45.05126 -121.19466 32887 ft 437 kts 107°
2026-05-05 05:20 45.04066 -121.15445 33259 ft 436 kts 107°
2026-05-05 05:20 45.03005 -121.11430 33638 ft 436 kts 107°
2026-05-05 05:21 45.01943 -121.07425 33993 ft 435 kts 107°
2026-05-05 05:21 45.00921 -121.03403 34314 ft 433 kts 104°
2026-05-05 05:21 45.00004 -120.99353 34631 ft 432 kts 103°
2026-05-05 05:21 44.99164 -120.95294 34946 ft 430 kts 102°
2026-05-05 05:22 44.98358 -120.91231 35251 ft 429 kts 102°
2026-05-05 05:22 44.97553 -120.87175 35538 ft 429 kts 102°
2026-05-05 05:22 44.96733 -120.83129 35812 ft 429 kts 102°
2026-05-05 05:22 44.95893 -120.79089 36065 ft 429 kts 102°
2026-05-05 05:23 44.95036 -120.75060 36351 ft 428 kts 103°
2026-05-05 05:23 44.94169 -120.71041 36629 ft 427 kts 103°
2026-05-05 05:23 44.93300 -120.67033 36808 ft 427 kts 103°
2026-05-05 05:24 44.91571 -120.59031 36842 ft 425 kts 102°
2026-05-05 05:24 44.89872 -120.51103 36845 ft 425 kts 102°
2026-05-05 05:25 44.88148 -120.43135 36836 ft 425 kts 103°
2026-05-05 05:25 44.86416 -120.35157 36855 ft 426 kts 102°
2026-05-05 05:26 44.84679 -120.27192 36848 ft 425 kts 102°
2026-05-05 05:26 44.82935 -120.19229 36843 ft 425 kts 102°
2026-05-05 05:27 44.81185 -120.11274 36834 ft 426 kts 102°
2026-05-05 05:27 44.78844 -120.00630 36835 ft 426 kts 102°
2026-05-05 05:28 44.77085 -119.92676 36836 ft 426 kts 102°
2026-05-05 05:28 44.75315 -119.84729 36835 ft 426 kts 102°
2026-05-05 05:29 44.73537 -119.76772 36836 ft 426 kts 102°
2026-05-05 05:29 44.71758 -119.68833 36833 ft 426 kts 102°
2026-05-05 05:30 44.69984 -119.60947 36837 ft 426 kts 102°
2026-05-05 05:30 44.68192 -119.53000 36833 ft 427 kts 102°
2026-05-05 05:31 44.66395 -119.45036 36834 ft 428 kts 102°
2026-05-05 05:31 44.64586 -119.37075 36835 ft 428 kts 102°
2026-05-05 05:32 44.62760 -119.29117 36833 ft 428 kts 102°
2026-05-05 05:32 44.60937 -119.21139 36839 ft 429 kts 102°
2026-05-05 05:33 44.59114 -119.13165 36831 ft 429 kts 102°
2026-05-05 05:33 44.57268 -119.05207 36854 ft 429 kts 102°
2026-05-05 05:34 44.55424 -118.97234 36846 ft 430 kts 102°
2026-05-05 05:34 44.53574 -118.89252 36842 ft 430 kts 102°
2026-05-05 05:35 44.51713 -118.81281 36860 ft 430 kts 102°
2026-05-05 05:35 44.49841 -118.73306 36860 ft 431 kts 102°
2026-05-05 05:36 44.47974 -118.65343 36863 ft 431 kts 102°
2026-05-05 05:36 44.46101 -118.57376 36858 ft 431 kts 102°
2026-05-05 05:37 44.44228 -118.49453 36862 ft 432 kts 102°
2026-05-05 05:37 44.42333 -118.41477 36857 ft 432 kts 102°
2026-05-05 05:38 44.40413 -118.33441 36840 ft 433 kts 102°
2026-05-05 05:38 44.38517 -118.25510 36844 ft 433 kts 102°
2026-05-05 05:39 44.36603 -118.17513 36844 ft 434 kts 102°
2026-05-05 05:39 44.34669 -118.09495 36826 ft 435 kts 103°
2026-05-05 05:40 44.32722 -118.01481 36826 ft 436 kts 103°
2026-05-05 05:40 44.30777 -117.93450 36820 ft 436 kts 103°
2026-05-05 05:41 44.28831 -117.85418 36813 ft 437 kts 103°
2026-05-05 05:41 44.26866 -117.77380 36803 ft 438 kts 103°
2026-05-05 05:42 44.24891 -117.69331 36788 ft 438 kts 103°
2026-05-05 05:42 44.22909 -117.61280 36779 ft 439 kts 103°
2026-05-05 05:43 44.20924 -117.53231 36774 ft 439 kts 103°
2026-05-05 05:43 44.18924 -117.45183 36758 ft 440 kts 103°
2026-05-05 05:44 44.16919 -117.37136 36782 ft 440 kts 103°
2026-05-05 05:44 44.14925 -117.29126 36756 ft 441 kts 103°
2026-05-05 05:45 44.12903 -117.21053 36744 ft 442 kts 103°
2026-05-05 05:45 44.10873 -117.12972 36779 ft 442 kts 103°
2026-05-05 05:46 44.08838 -117.04898 36789 ft 443 kts 103°
2026-05-05 05:46 44.06797 -116.96809 36792 ft 443 kts 104°
2026-05-05 05:47 44.04741 -116.88719 36789 ft 443 kts 104°
2026-05-05 05:47 44.02682 -116.80643 36769 ft 444 kts 103°
2026-05-05 05:48 44.00618 -116.72551 36759 ft 444 kts 103°
2026-05-05 05:48 43.98546 -116.64468 36738 ft 444 kts 103°
2026-05-05 05:49 43.96460 -116.56384 36723 ft 445 kts 103°
2026-05-05 05:49 43.94372 -116.48310 36723 ft 445 kts 103°
2026-05-05 05:50 43.92296 -116.40284 36721 ft 445 kts 103°
2026-05-05 05:50 43.90196 -116.32209 36715 ft 445 kts 104°
2026-05-05 05:51 43.88088 -116.24132 36720 ft 446 kts 104°
2026-05-05 05:51 43.85976 -116.16059 36714 ft 446 kts 104°
2026-05-05 05:52 43.83856 -116.07976 36712 ft 446 kts 104°
2026-05-05 05:52 43.81726 -115.99899 36717 ft 446 kts 104°
2026-05-05 05:53 43.79584 -115.91832 36734 ft 447 kts 104°
2026-05-05 05:53 43.77440 -115.83762 36724 ft 447 kts 104°
2026-05-05 05:54 43.75294 -115.75702 36723 ft 447 kts 104°
2026-05-05 05:54 43.73141 -115.67640 36723 ft 446 kts 104°
2026-05-05 05:55 43.70983 -115.59590 36712 ft 447 kts 104°
2026-05-05 05:55 43.68825 -115.51570 36695 ft 446 kts 105°
2026-05-05 05:56 43.66647 -115.43505 36714 ft 448 kts 104°
2026-05-05 05:56 43.64463 -115.35426 36714 ft 449 kts 105°
2026-05-05 05:57 43.62265 -115.27354 36724 ft 449 kts 105°
2026-05-05 05:57 43.60065 -115.19279 36725 ft 449 kts 105°
2026-05-05 05:58 43.57867 -115.11208 36729 ft 450 kts 105°
2026-05-05 05:58 43.55661 -115.03173 36734 ft 451 kts 105°
2026-05-05 05:59 43.53431 -114.95083 36733 ft 452 kts 106°
2026-05-05 05:59 43.51190 -114.86971 36725 ft 453 kts 106°
2026-05-05 06:00 43.48945 -114.78859 36735 ft 453 kts 106°
2026-05-05 06:00 43.46685 -114.70746 36734 ft 454 kts 107°
2026-05-05 06:01 43.44423 -114.62640 36757 ft 454 kts 107°
2026-05-05 06:01 43.42153 -114.54524 36737 ft 455 kts 108°
2026-05-05 06:02 43.39872 -114.46394 36730 ft 455 kts 108°
2026-05-05 06:02 43.37581 -114.38259 36726 ft 456 kts 108°
2026-05-05 06:03 43.36434 -114.34200 36865 ft 456 kts 108°
2026-05-05 06:03 43.35283 -114.30137 36858 ft 456 kts 108°
2026-05-05 06:03 43.32990 -114.22061 36839 ft 457 kts 109°
2026-05-05 06:04 43.30674 -114.13945 36817 ft 456 kts 108°
2026-05-05 06:04 43.28358 -114.05828 36793 ft 456 kts 109°
2026-05-05 06:05 43.26049 -113.97718 36740 ft 456 kts 109°
2026-05-05 06:05 43.23724 -113.89615 36716 ft 457 kts 109°
2026-05-05 06:06 43.21379 -113.81516 36715 ft 458 kts 109°
2026-05-05 06:06 43.19034 -113.73401 36721 ft 458 kts 109°
2026-05-05 06:07 43.16676 -113.65274 36723 ft 458 kts 109°
2026-05-05 06:07 43.14321 -113.57163 36724 ft 459 kts 109°
2026-05-05 06:08 43.11953 -113.49035 36728 ft 460 kts 110°
2026-05-05 06:08 43.09574 -113.40909 36725 ft 461 kts 110°
2026-05-05 06:09 43.07179 -113.32771 36731 ft 461 kts 110°
2026-05-05 06:09 43.04778 -113.24630 36735 ft 462 kts 110°
2026-05-05 06:10 43.02375 -113.16490 36733 ft 462 kts 110°
2026-05-05 06:10 42.99967 -113.08389 36740 ft 462 kts 110°
2026-05-05 06:11 42.97545 -113.00241 36766 ft 464 kts 111°
2026-05-05 06:11 42.95116 -112.92077 36786 ft 465 kts 111°
2026-05-05 06:12 42.92666 -112.83908 36816 ft 466 kts 111°
2026-05-05 06:12 42.90197 -112.75726 36846 ft 466 kts 111°
2026-05-05 06:13 42.89145 -112.71546 36861 ft 463 kts 98°
2026-05-05 06:13 42.89091 -112.67217 36861 ft 456 kts 76°
2026-05-05 06:13 42.89690 -112.64440 36853 ft 450 kts 62°
2026-05-05 06:13 42.91386 -112.60994 36845 ft 440 kts 41°
2026-05-05 06:14 42.93777 -112.58455 36847 ft 435 kts 27°
2026-05-05 06:14 42.96453 -112.56554 36842 ft 433 kts 21°
2026-05-05 06:14 43.02058 -112.53349 36822 ft 436 kts 20°
2026-05-05 06:15 43.07509 -112.49752 36740 ft 440 kts 25°
2026-05-05 06:15 43.12846 -112.45592 36765 ft 442 kts 28°
2026-05-05 06:16 43.18145 -112.41301 36786 ft 443 kts 27°
2026-05-05 06:16 43.23477 -112.37030 36782 ft 445 kts 31°
2026-05-05 06:17 43.28487 -112.31978 36822 ft 448 kts 34°
2026-05-05 06:17 43.33391 -112.26684 36855 ft 449 kts 36°
2026-05-05 06:18 43.38169 -112.21469 36883 ft 424 kts 35°
2026-05-05 06:18 43.40445 -112.19004 36895 ft 410 kts 34°
2026-05-05 06:18 43.42678 -112.16605 36907 ft 405 kts 34°
2026-05-05 06:19 43.47118 -112.11868 36915 ft 403 kts 34°
2026-05-05 06:19 43.51556 -112.07130 36915 ft 403 kts 34°
2026-05-05 06:20 43.55980 -112.02380 36916 ft 403 kts 34°
2026-05-05 06:20 43.60370 -111.97648 36872 ft 403 kts 34°
2026-05-05 06:21 43.64771 -111.92891 36921 ft 400 kts 34°
2026-05-05 06:21 43.69150 -111.88159 36943 ft 399 kts 34°
2026-05-05 06:22 43.73555 -111.83514 36961 ft 398 kts 33°
2026-05-05 06:22 43.78349 -111.80020 36967 ft 386 kts
2026-05-05 06:23 43.81000 -111.79788 36968 ft 380 kts 351°
2026-05-05 06:23 43.83542 -111.80619 36967 ft 375 kts 335°
2026-05-05 06:23 43.85794 -111.82406 36975 ft 373 kts 320°
2026-05-05 06:23 43.87586 -111.84977 36975 ft 373 kts 305°
2026-05-05 06:24 43.88790 -111.88165 36972 ft 376 kts 290°
2026-05-05 06:24 43.89303 -111.91724 36969 ft 381 kts 274°
2026-05-05 06:24 43.89050 -111.95396 36960 ft 387 kts 258°
2026-05-05 06:24 43.88021 -111.98874 36952 ft 395 kts 241°
2026-05-05 06:25 43.86253 -112.01830 36946 ft 404 kts 224°
2026-05-05 06:25 43.83863 -112.03944 36941 ft 413 kts 205°
2026-05-05 06:25 43.81069 -112.04948 36938 ft 420 kts 186°
2026-05-05 06:25 43.78145 -112.04674 36934 ft 425 kts 167°
2026-05-05 06:26 43.75439 -112.03162 36932 ft 427 kts 152°
2026-05-05 06:26 43.72865 -112.01095 36933 ft 429 kts 149°
2026-05-05 06:26 43.67744 -111.96871 36913 ft 427 kts 162°
2026-05-05 06:27 43.64877 -111.96006 36903 ft 420 kts 182°
2026-05-05 06:27 43.59514 -111.98270 36858 ft 400 kts 224°
2026-05-05 06:27 43.57752 -112.01112 36902 ft 387 kts 248°
2026-05-05 06:28 43.57018 -112.04607 36903 ft 378 kts 271°
2026-05-05 06:28 43.57416 -112.08132 36903 ft 373 kts 295°
2026-05-05 06:28 43.58859 -112.11063 36913 ft 373 kts 319°
2026-05-05 06:28 43.61081 -112.12866 36845 ft 374 kts 342°
2026-05-05 06:29 43.63651 -112.13512 36860 ft 379 kts 355°
2026-05-05 06:29 43.68918 -112.12632 36888 ft 387 kts 13°
2026-05-05 06:30 43.74183 -112.11664 36900 ft 381 kts 355°
2026-05-05 06:30 43.76839 -112.11583 36893 ft 384 kts
2026-05-05 06:30 43.79376 -112.10395 36897 ft 391 kts 28°
2026-05-05 06:31 43.83811 -112.05963 36920 ft 394 kts 34°
2026-05-05 06:31 43.85880 -112.03465 36915 ft 398 kts 45°
2026-05-05 06:31 43.87432 -112.00259 36923 ft 406 kts 62°
2026-05-05 06:31 43.88307 -111.96503 36931 ft 413 kts 78°
2026-05-05 06:32 43.88394 -111.92498 36941 ft 420 kts 96°
2026-05-05 06:32 43.87605 -111.88586 36943 ft 426 kts 115°
2026-05-05 06:32 43.85951 -111.85180 36942 ft 429 kts 135°
2026-05-05 06:32 43.83636 -111.82691 36937 ft 428 kts 155°
2026-05-05 06:33 43.80860 -111.81310 36937 ft 423 kts 173°
2026-05-05 06:33 43.77952 -111.81178 36936 ft 416 kts 192°
2026-05-05 06:33 43.75197 -111.82252 36936 ft 408 kts 210°
2026-05-05 06:34 43.70463 -111.86463 36925 ft 404 kts 221°
2026-05-05 06:34 43.66295 -111.91536 36891 ft 393 kts 240°
2026-05-05 06:34 43.65040 -111.94835 36883 ft 386 kts 255°
2026-05-05 06:35 43.64454 -111.98409 36874 ft 380 kts 269°
2026-05-05 06:35 43.64571 -112.02014 36867 ft 375 kts 284°
2026-05-05 06:35 43.65403 -112.05391 36862 ft 371 kts 300°
2026-05-05 06:35 43.66870 -112.08303 36860 ft 370 kts 314°
2026-05-05 06:36 43.68855 -112.10546 36861 ft 371 kts 329°
2026-05-05 06:36 43.71230 -112.11939 36862 ft 374 kts 345°
2026-05-05 06:36 43.73820 -112.12374 36865 ft 378 kts 360°
2026-05-05 06:36 43.76433 -112.11796 36869 ft 385 kts 15°
2026-05-05 06:37 43.78864 -112.10190 36889 ft 391 kts 28°
2026-05-05 06:37 43.83316 -112.05844 36904 ft 392 kts 33°
2026-05-05 06:38 43.87061 -112.00351 36908 ft 403 kts 59°
2026-05-05 06:38 43.88010 -111.96722 36916 ft 411 kts 76°
2026-05-05 06:38 43.88182 -111.92750 36923 ft 418 kts 94°
2026-05-05 06:38 43.87470 -111.88835 36925 ft 424 kts 113°
2026-05-05 06:39 43.85883 -111.85385 36926 ft 427 kts 133°
2026-05-05 06:39 43.83581 -111.82814 36917 ft 426 kts 154°
2026-05-05 06:39 43.80833 -111.81384 36917 ft 421 kts 173°
2026-05-05 06:39 43.77937 -111.81212 36917 ft 414 kts 192°
2026-05-05 06:40 43.75194 -111.82257 36918 ft 406 kts 210°
2026-05-05 06:40 43.70484 -111.86452 36909 ft 402 kts 221°
2026-05-05 06:41 43.66320 -111.91502 36877 ft 393 kts 240°
2026-05-05 06:41 43.65057 -111.94792 36869 ft 385 kts 255°
2026-05-05 06:41 43.64470 -111.98356 36860 ft 379 kts 269°
2026-05-05 06:41 43.64587 -112.01958 36854 ft 374 kts 284°
2026-05-05 06:42 43.65409 -112.05336 36850 ft 371 kts 300°
2026-05-05 06:42 43.66877 -112.08236 36848 ft 369 kts 315°
2026-05-05 06:42 43.68874 -112.10460 36850 ft 370 kts 329°
2026-05-05 06:42 43.71246 -112.11863 36851 ft 373 kts 344°
2026-05-05 06:43 43.73829 -112.12305 36854 ft 378 kts 360°
2026-05-05 06:43 43.76441 -112.11705 36859 ft 385 kts 15°
2026-05-05 06:43 43.78866 -112.10082 36877 ft 391 kts 28°
2026-05-05 06:44 43.83316 -112.05737 36892 ft 392 kts 33°
2026-05-05 06:44 43.87034 -112.00214 36895 ft 403 kts 60°
2026-05-05 06:44 43.87964 -111.96524 36903 ft 411 kts 77°
2026-05-05 06:45 43.88104 -111.92539 36909 ft 418 kts 95°
2026-05-05 06:45 43.87353 -111.88631 36911 ft 424 kts 114°
2026-05-05 06:45 43.85723 -111.85216 36911 ft 427 kts 134°
2026-05-05 06:45 43.83387 -111.82698 36906 ft 427 kts 155°
2026-05-05 06:46 43.80621 -111.81341 36904 ft 421 kts 174°
2026-05-05 06:46 43.77725 -111.81249 36904 ft 414 kts 193°
2026-05-05 06:46 43.75000 -111.82375 36904 ft 406 kts 211°
2026-05-05 06:47 43.70349 -111.86591 36894 ft 402 kts 221°
2026-05-05 06:47 43.66225 -111.91687 36862 ft 392 kts 241°
2026-05-05 06:47 43.65002 -111.95004 36854 ft 385 kts 256°
2026-05-05 06:48 43.64459 -111.98581 36846 ft 379 kts 270°
2026-05-05 06:48 43.64615 -112.02173 36839 ft 374 kts 285°
2026-05-05 06:48 43.65472 -112.05532 36835 ft 369 kts 300°
2026-05-05 06:48 43.66962 -112.08392 36831 ft 368 kts 315°
2026-05-05 06:49 43.68966 -112.10575 36836 ft 369 kts 330°
2026-05-05 06:49 43.71341 -112.11921 36837 ft 372 kts 345°
2026-05-05 06:49 43.73917 -112.12312 36840 ft 376 kts
2026-05-05 06:49 43.76508 -112.11675 36846 ft 383 kts 16°
2026-05-05 06:50 43.78917 -112.10043 36863 ft 389 kts 28°
2026-05-05 06:50 43.83340 -112.05714 36878 ft 390 kts 34°
2026-05-05 06:51 43.87046 -112.00220 36878 ft 401 kts 60°
2026-05-05 06:51 43.87982 -111.96549 36886 ft 410 kts 76°
2026-05-05 06:51 43.88126 -111.92584 36894 ft 417 kts 94°
2026-05-05 06:51 43.87391 -111.88677 36895 ft 423 kts 114°
2026-05-05 06:52 43.85781 -111.85274 36893 ft 426 kts 134°
2026-05-05 06:52 43.83459 -111.82750 36888 ft 425 kts 154°
2026-05-05 06:52 43.80704 -111.81372 36888 ft 420 kts 173°
2026-05-05 06:52 43.77812 -111.81241 36888 ft 413 kts 192°
2026-05-05 06:53 43.75088 -111.82318 36890 ft 405 kts 211°
2026-05-05 06:53 43.70406 -111.86529 36879 ft 401 kts 221°
2026-05-05 06:54 43.66281 -111.91587 36848 ft 391 kts 240°
2026-05-05 06:54 43.65045 -111.94874 36840 ft 383 kts 255°
2026-05-05 06:54 43.64482 -111.98381 36830 ft 377 kts 270°
2026-05-05 06:54 43.64617 -112.01962 36824 ft 372 kts 285°
2026-05-05 06:55 43.65461 -112.05310 36818 ft 368 kts 300°
2026-05-05 06:55 43.66943 -112.08176 36816 ft 367 kts 315°
2026-05-05 06:55 43.68942 -112.10355 36821 ft 368 kts 330°
2026-05-05 06:55 43.71311 -112.11716 36822 ft 371 kts 345°
2026-05-05 06:56 43.73886 -112.12131 36824 ft 376 kts
2026-05-05 06:56 43.76477 -112.11499 36830 ft 383 kts 16°
2026-05-05 06:56 43.78878 -112.09854 36848 ft 389 kts 28°
2026-05-05 06:57 43.82568 -112.06278 36860 ft 390 kts 33°
2026-05-05 06:57 43.86507 -112.01107 36852 ft 399 kts 54°
2026-05-05 06:57 43.87660 -111.97576 36869 ft 407 kts 71°
2026-05-05 06:58 43.88051 -111.93666 36876 ft 415 kts 89°
2026-05-05 06:58 43.87569 -111.89711 36875 ft 421 kts 108°
2026-05-05 06:58 43.86192 -111.86124 36879 ft 425 kts 128°
2026-05-05 06:58 43.84041 -111.83319 36878 ft 426 kts 148°
2026-05-05 06:59 43.81374 -111.81615 36873 ft 422 kts 168°
2026-05-05 06:59 43.78490 -111.81164 36868 ft 415 kts 188°
2026-05-05 06:59 43.75695 -111.81955 36868 ft 407 kts 206°
2026-05-05 06:59 43.73233 -111.83799 36870 ft 402 kts 218°
2026-05-05 07:00 43.70938 -111.85994 36853 ft 401 kts 221°
2026-05-05 07:00 43.66672 -111.90886 36823 ft 393 kts 237°
2026-05-05 07:00 43.65275 -111.94070 36819 ft 385 kts 252°
2026-05-05 07:01 43.64556 -111.97588 36826 ft 378 kts 267°
2026-05-05 07:01 43.64538 -112.01179 36818 ft 373 kts 282°
2026-05-05 07:01 43.65221 -112.04602 36801 ft 369 kts 296°
2026-05-05 07:01 43.66558 -112.07593 36810 ft 367 kts 311°
2026-05-05 07:02 43.68444 -112.09953 36813 ft 367 kts 326°
2026-05-05 07:02 43.70738 -112.11513 36814 ft 370 kts 341°
2026-05-05 07:02 43.73280 -112.12151 36816 ft 374 kts 356°
2026-05-05 07:02 43.75885 -112.11763 36820 ft 381 kts 12°
2026-05-05 07:03 43.78343 -112.10336 36829 ft 389 kts 29°
2026-05-05 07:03 43.82658 -112.05872 36859 ft 389 kts 33°
2026-05-05 07:04 43.86618 -112.00749 36859 ft 398 kts 54°
2026-05-05 07:04 43.87767 -111.97230 36870 ft 407 kts 72°
2026-05-05 07:04 43.88087 -111.93303 36875 ft 415 kts 91°
2026-05-05 07:04 43.87505 -111.89368 36883 ft 422 kts 110°
2026-05-05 07:05 43.86035 -111.85843 36880 ft 425 kts 130°
2026-05-05 07:05 43.83828 -111.83143 36875 ft 425 kts 150°
2026-05-05 07:05 43.81135 -111.81536 36871 ft 420 kts 170°
2026-05-05 07:05 43.78260 -111.81175 36874 ft 413 kts 189°
2026-05-05 07:06 43.75495 -111.82062 36874 ft 405 kts 208°
2026-05-05 07:06 43.70782 -111.86144 36864 ft 399 kts 221°